User: anonymous   Login
Location: Unspecified
(0.0000°N, 0.0000°E)
Time: 20:13:47
(UTC+00:00)
Language:

STARLINK-32790 - Orbit

View from above orbital plane
View from above orbital plane
View from above satellite
View from above satellite

Ground track
Ground track

The orbit is defined by the following mean orbital elements,

1 63048U          26145.58335647 +.00000000 +00000-0 +61629-3 0 00000
2 63048  53.1587 261.1837 0001104  57.9689  41.7449 15.34363740    05
Epoch (UTC): 25 May 2026 14:00:01
Eccentricity: 0.0001104
inclination: 53.1587°
perigee height: 462 km
apogee height: 464 km
right ascension of ascending node: 261.1837°
argument of perigee: 57.9689°
revolutions per day: 15.34363740
mean anomaly at epoch: 41.7449°

The dashed part of the orbit path shows where the satellite is in the earth's shadow,  

DLR